Eureka, NV

4:31 AM PDT on May 30, 2017 (GMT -0700)
Eureka

Weather History for KP68 - November, 2013

Change the Weather History Date:

Saturday, November 9, 2013

  Actual Average Record
Temperature  
Mean Temperature 44 °F 37 °F  
Max Temperature 63 °F 53 °F 71 °F (2014)
Min Temperature 25 °F 22 °F 5 °F (2000)
Degree Days  
Heating Degree Days 21 28  
Month to date heating degree days 227 236  
Since 1 July heating degree days 1036 1083  
Cooling Degree Days 0 0  
Month to date cooling degree days 0 0  
Year to date cooling degree days 585 288  
Moisture  
Dew Point 20 °F    
Average Humidity 47    
Maximum Humidity 75    
Minimum Humidity 19    
Precipitation  
Precipitation 0.00 in 0.03 in 0.70 in (1991)
Month to date precipitation 0.03 0.29  
Year to date precipitation 6.86 7.90  
Sea Level Pressure  
Sea Level Pressure 30.11 in    
Wind  
Wind Speed 5 mph (SSW)    
Max Wind Speed 12 mph    
Max Gust Speed 13 mph    
T = Trace of Precipitation, MM = Missing Value Source: NWS Daily Summary

Daily Weather History Graph

Daily Weather History Graph

Search for Another Location

Airport or City:

Trip Planner

Search our weather history database for the weather conditions in past years. The results will help you decide how hot, cold, wet, or windy it might be!

Date:

Astronomy

Nov. 09, 2013 Rise Set
Actual Time 6:21 AM PST 4:33 PM PST
Civil Twilight 5:53 AM PST 5:01 PM PST
Nautical Twilight 5:20 AM PST 5:34 PM PST
Astronomical Twilight 4:49 AM PST 6:05 PM PST
Moon 12:01 PM PST (11/9) 11:08 PM PST (11/9)
Length of Visible Light 11h 08m
Length of Day
10h 11m
Waxing Crescent, 45% of the Moon is Illuminated
Nov 9
Waxing Crescent
Nov 9
First Quarter
Nov 17
Full
Nov 25
Last Quarter
Dec 2
New

Hourly Weather History & Observations

Time (PST) Temp. Windchill Dew Point Humidity Pressure Visibility Wind Dir Wind Speed Gust Speed Precip Events Conditions
12:53 AM 34.0 °F 28.8 °F 21.9 °F 61% 30.01 in - SSW 5.8 mph - N/A   Unknown
1:53 AM 30.0 °F 23.2 °F 21.0 °F 69% 30.03 in - South 6.9 mph - N/A   Unknown
2:53 AM 28.9 °F 20.4 °F 21.0 °F 72% 30.04 in - SSW 9.2 mph - N/A   Unknown
3:53 AM 26.1 °F 18.4 °F 19.0 °F 75% 30.07 in - South 6.9 mph - N/A   Unknown
4:53 AM 28.0 °F 19.3 °F 19.9 °F 72% 30.10 in - SSW 9.2 mph - N/A   Unknown
5:53 AM 30.0 °F 22.4 °F 19.9 °F 66% 30.13 in - SW 8.1 mph - N/A   Unknown
6:53 AM 28.9 °F 22.8 °F 21.0 °F 72% 30.18 in - SW 5.8 mph - N/A   Unknown
7:53 AM 35.1 °F 31.0 °F 23.0 °F 61% 30.17 in - SSW 4.6 mph - N/A   Unknown
8:53 AM 48.0 °F - 23.0 °F 37% 30.14 in - North 3.5 mph - N/A   Unknown
9:53 AM 51.1 °F - 23.0 °F 33% 30.13 in - Calm Calm - N/A   Unknown
10:53 AM 54.0 °F - 21.9 °F 29% 30.11 in - Calm Calm - N/A   Unknown
11:53 AM 59.0 °F - 18.0 °F 20% 30.07 in - Calm Calm - N/A   Unknown
12:53 PM 61.0 °F - 19.9 °F 21% 30.04 in - NNE 5.8 mph - N/A   Unknown
1:53 PM 62.1 °F - 19.0 °F 19% 30.05 in - NE 4.6 mph - N/A   Unknown
2:53 PM 61.0 °F - 19.0 °F 20% 30.06 in - Calm Calm - N/A   Unknown
3:53 PM 62.1 °F - 19.0 °F 19% 30.07 in - Calm Calm - N/A   Unknown
4:53 PM 48.0 °F - 21.9 °F 36% 30.12 in - SE 4.6 mph - N/A   Unknown
5:53 PM 44.1 °F 41.5 °F 19.9 °F 38% 30.15 in - SW 4.6 mph - N/A   Unknown
6:53 PM 39.0 °F 34.8 °F 21.9 °F 50% 30.18 in - South 5.8 mph - N/A   Unknown
7:53 PM 34.0 °F 31.0 °F 19.9 °F 56% 30.19 in - South 3.5 mph - N/A   Unknown
8:53 PM 32.0 °F 28.7 °F 19.9 °F 61% 30.16 in - South 3.5 mph - N/A   Unknown
9:53 PM 37.0 °F 31.0 °F 19.9 °F 50% 30.14 in - SW 8.1 mph - N/A   Unknown
10:53 PM 34.0 °F 26.0 °F 19.9 °F 56% 30.15 in - SSW 10.4 mph - N/A   Unknown
11:53 PM 30.0 °F 21.7 °F 19.0 °F 64% 30.14 in - SSW 9.2 mph - N/A   Unknown